Вернуться в каталог

STARLINK-35804

АктивенСвязьVLEO
NORAD 66371·PAYLOAD·🇺🇸 United States

Запущен Nov 6, 2025 с Vandenberg Space Force Base

Loading…

Ближайшие Пролёты (ближайшие 24 часа)

TLE

СвежийSource: CelesTrak SupGP

Эпоха: Sep 15, 2026, 02:31 UTC

1 66371C 25254Z   26258.10534722 -.00028117  00000+0 -83059-3 0  2584
2 66371  53.1577  68.5861 0001072  79.1819 239.9178 15.34409726    13

Отслеживайте STARLINK-35804 в реальном времени с AllMySat

Download on the App Store